KN4IED-WX Weather Reports


time (UTC)temp
C
wind
direction
speed
KPH
gust
KPH
rain 1hr
cm
rain 24hr
cm
rain mn
cm
humidity
%
barometer
mb
20260504130531 13 154 3.2 6.4 0.00 0.00 0.00 70 1018.5
20260504110523 5 80 0.0 3.2 0.00 0.00 0.00 97 1018.1
20260504100519 5 74 3.2 3.2 0.00 0.00 0.00 97 1017.9
20260504081516 6 74 1.6 3.2 0.00 0.00 0.00 93 1017.7
20260504080552 6 87 3.2 4.8 0.00 0.00 0.00 92 1017.6
20260504050523 9 75 1.6 3.2 0.00 0.00 0.00 80 1018.0
20260504045519 9 82 1.6 3.2 0.00 0.00 0.00 75 1018.0
20260504044535 9 107 1.6 4.8 0.00 0.00 0.00 73 1017.9
20260504043531 9 81 3.2 3.2 0.00 0.00 0.00 74 1017.9
20260504042527 10 78 3.2 3.2 0.00 0.00 0.00 76 1018.0
20260504041523 10 63 1.6 3.2 0.00 0.00 0.00 72 1018.1
20260504040538 10 88 3.2 3.2 0.00 0.00 0.00 71 1018.2
20260504035535 10 75 1.6 3.2 0.00 0.00 0.00 68 1018.2
20260504034551 10 83 3.2 3.2 0.00 0.00 0.00 69 1018.3
20260504033527 10 78 3.2 4.8 0.00 0.00 0.00 70 1018.4
20260504032523 10 79 1.6 3.2 0.00 0.00 0.00 66 1018.2
20260504031520 10 84 1.6 3.2 0.00 0.00 0.00 67 1018.3
20260504030536 10 89 1.6 3.2 0.00 0.00 0.00 67 1018.2
20260504025532 11 107 1.6 3.2 0.00 0.00 0.00 71 1018.1
20260504024528 11 87 1.6 3.2 0.00 0.00 0.00 68 1018.2
20260504023524 11 66 1.6 4.8 0.00 0.00 0.00 67 1018.1
20260504022520 11 84 1.6 3.2 0.00 0.00 0.00 62 1017.9
20260504021516 11 95 1.6 3.2 0.00 0.00 0.00 66 1017.8
20260504020532 12 55 3.2 3.2 0.00 0.00 0.00 63 1017.6
20260504015529 12 95 1.6 3.2 0.00 0.00 0.00 58 1017.5
20260504014525 12 78 1.6 3.2 0.00 0.00 0.00 57 1017.3
20260504013520 12 87 1.6 3.2 0.00 0.00 0.00 59 1017.4
20260504012516 13 87 1.6 3.2 0.00 0.00 0.00 56 1017.2
20260504011532 13 70 0.0 3.2 0.00 0.00 0.00 54 1017.2
20260504010528 13 78 1.6 3.2 0.00 0.00 0.00 50 1017.0
20260504005524 14 68 1.6 3.2 0.00 0.00 0.00 48 1017.0
20260504004520 15 84 1.6 3.2 0.00 0.00 0.00 47 1016.8
20260504003516 15 90 1.6 3.2 0.00 0.00 0.00 44 1016.7
20260504002533 16 103 0.0 3.2 0.00 0.00 0.00 43 1016.6
20260504001549 16 103 1.6 3.2 0.00 0.00 0.00 40 1016.5
20260504000525 17 97 0.0 3.2 0.00 0.00 0.00 39 1016.4
20260503235521 17 93 1.6 3.2 0.00 0.00 0.00 37 1016.4
20260503234518 17 75 0.0 4.8 0.00 0.00 0.00 37 1016.4
20260503233534 18 79 1.6 4.8 0.00 0.00 0.00 37 1016.3
20260503232530 18 77 1.6 8.0 0.00 0.00 0.00 36 1016.3
20260503231526 18 69 1.6 4.8 0.00 0.00 0.00 36 1016.4
20260503230522 19 163 0.0 3.2 0.00 0.00 0.00 34 1016.5
20260503225518 20 74 1.6 6.4 0.00 0.00 0.00 32 1016.6
20260503224555 20 117 1.6 6.4 0.00 0.00 0.00 31 1016.5
20260503223531 20 191 3.2 9.7 0.00 0.00 0.00 32 1016.6
20260503222527 21 175 3.2 12.9 0.00 0.00 0.00 31 1016.5
20260503221523 21 206 3.2 8.0 0.00 0.00 0.00 29 1016.5
20260503220519 21 164 3.2 6.4 0.00 0.00 0.00 30 1016.5
20260503215536 21 218 3.2 8.0 0.00 0.00 0.00 33 1016.7
20260503214531 21 153 3.2 8.0 0.00 0.00 0.00 31 1016.7
20260503213528 21 142 3.2 9.7 0.00 0.00 0.00 33 1016.9
20260503212524 22 203 4.8 9.7 0.00 0.03 0.00 31 1016.8
20260503211519 21 181 3.2 14.5 0.00 0.03 0.00 32 1016.9
20260503210516 21 222 4.8 11.3 0.00 0.03 0.00 30 1016.9
20260503205552 21 204 3.2 8.0 0.00 0.03 0.00 31 1017.1
20260503204528 21 211 6.4 12.9 0.00 0.03 0.00 29 1017.2
20260503203524 21 181 4.8 9.7 0.00 0.10 0.00 28 1017.3
20260503202600 21 168 3.2 8.0 0.00 0.15 0.00 31 1017.4
20260503201517 21 192 4.8 9.7 0.00 0.15 0.00 30 1017.6
20260503200533 20 175 3.2 12.9 0.00 0.15 0.00 30 1017.9
20260503195530 21 190 4.8 11.3 0.00 0.15 0.00 29 1018.0
20260503194546 21 235 4.8 12.9 0.00 0.15 0.00 31 1018.2
20260503193522 20 28 4.8 9.7 0.00 0.15 0.00 34 1018.3
20260503192518 20 210 6.4 16.1 0.00 0.15 0.00 35 1018.6
20260503191534 20 79 4.8 8.0 0.00 0.15 0.00 35 1018.7
20260503190531 20 193 9.7 22.5 0.00 0.15 0.00 34 1018.8
20260503185627 20 174 4.8 11.3 0.00 0.15 0.00 37 1018.9
20260503184523 19 141 6.4 11.3 0.00 0.15 0.00 36 1019.2
20260503183520 19 170 6.4 14.5 0.00 0.15 0.00 37 1019.3
20260503182516 19 207 4.8 11.3 0.00 0.15 0.00 37 1019.4
20260503181532 19 187 6.4 12.9 0.00 0.15 0.00 38 1019.3
20260503180529 19 176 4.8 12.9 0.00 0.15 0.00 36 1019.4
20260503175525 18 178 4.8 11.3 0.00 0.15 0.00 36 1019.5
20260503174521 18 158 6.4 12.9 0.00 0.15 0.00 37 1019.5
20260503173518 18 149 4.8 11.3 0.00 0.15 0.00 37 1019.6
20260503172554 18 210 6.4 12.9 0.00 0.15 0.00 37 1019.7
20260503171530 17 131 6.4 14.5 0.00 0.15 0.00 38 1020.0
20260503170526 17 163 6.4 12.9 0.00 0.15 0.00 39 1020.0
20260503150541 16 38 3.2 6.4 0.00 0.15 0.00 47 1021.0